Wind_Speed
5 3 2 5 8 8 10 12 6 15 12 14 11 12 12 4 7 5 5 6 7 6 6 10 15 17 18 17 20 23 22 22 24 22 25 27 30 31 32 31 31 32 32 32
2 7 4 6 11 11 14 17 15 16 20 18 15 3 3 4 6 6 6 7 6 6 9 14 18 17 17 20 22 22 21 22 23 22 23 25 26 27 28 29 30 31 33 31
3 4 4 9 12 14 10 11 8 12 16 9 4 5 5 5 2 5 8 7 6 8 11 12 15 16 17 20 22 23 22 23 22 25 25 26 27 27 27 27 28 29 29 30
3 4 3 7 5 6 5 7 10 11 9 6 1 4 5 6 2 6 8 9 8 8 11 14 15 16 18 20 22 22 23 21 23 24 25 27 27 27 29 29 28 29 30 28
3 4 8 10 5 2 1 5 6 7 9 2 6 5 6 6 11 10 9 8 10 11 11 12 12 16 16 18 18 20 18 21 23 24 26 26 27 29 29 30 27 29 27 30
3 3 5 2 5 7 4 5 4 6 6 5 5 2 1 7 9 9 11 11 12 11 11 11 12 12 13 14 17 15 19 21 23 25 26 27 28 30 30 29 31 28 30 29
6 4 6 9 9 4 1 3 2 3 5 4 4 3 5 8 9 14 13 12 10 8 7 8 9 11 12 15 16 20 22 23 24 25 27 27 29 31 29 33 30 33 30 31
3 3 6 3 5 2 4 4 2 4 3 2 4 7 8 8 7 8 7 5 4 3 5 8 11 13 15 17 21 23 24 25 26 27 28 28 29 28 31 29 32 29 28 26
6 5 4 1 3 6 10 7 6 7 4 4 4 7 7 6 6 5 4 2 3 6 8 10 13 15 19 21 23 23 23 24 24 26 26 27 27 29 30 26 28 25 24 24
7 2 5 10 12 9 7 5 6 6 6 5 3 6 5 4 2 1 1 3 6 8 11 13 15 17 18 22 23 23 23 24 24 25 27 26 27 25 27 27 25 24 25 26
7 12 12 9 4 5 2 4 3 3 3 2 4 5 4 4 2 1 2 5 8 10 13 15 17 19 20 22 22 23 23 24 25 24 25 28 26 27 27 26 26 29 28 29
7 9 11 11 8 3 5 5 5 5 3 4 2 3 3 1 1 1 3 7 10 12 15 18 20 22 23 23 22 24 23 22 23 25 25 27 27 29 27 28 31 32 33 31
8 6 7 8 6 3 2 3 6 6 5 4 2 2 2 1 2 5 8 11 13 13 18 21 22 23 23 22 23 24 24 25 25 25 25 24 24 24 24 32 30 29 28 30
10 8 8 5 1 5 6 6 10 10 8 6 4 4 3 2 5 8 11 12 15 17 20 21 23 23 24 26 25 25 26 25 25 24 23 24 24 25 25 24 24 28 26 30
5 5 2 4 5 4 5 4 5 5 6 6 7 3 2 4 7 11 14 15 17 19 22 21 21 25 25 25 25 26 25 24 24 24 24 25 25 25 25 24 23 25 26 26
3 4 4 3 3 3 4 4 6 6 6 3 3 4 5 6 11 15 16 18 16 14 21 22 23 27 27 26 26 25 23 25 26 24 23 23 23 23 23 23 22 22 22 22
1 4 5 5 7 7 8 5 5 5 4 4 4 5 6 10 13 17 16 15 18 22 23 25 28 29 29 21 26 27 25 24 25 26 22 22 23 23 22 22 21 23 23 24
3 2 4 4 6 7 6 5 4 4 4 5 4 6 9 11 9 15 19 20 21 24 24 26 27 25 29 30 28 26 25 25 23 22 23 24 24 25 24 24 23 23 24 23
6 5 4 2 6 6 5 6 6 6 5 5 6 8 10 13 16 19 20 22 19 18 26 26 28 27 27 30 28 27 24 23 23 25 24 26 26 24 22 23 24 24 24 24
1 2 5 6 9 8 7 7 7 6 6 6 7 10 13 17 18 20 21 21 23 25 28 29 29 30 29 29 26 25 24 24 24 26 25 26 24 24 24 24 26 23 24 22
6 7 6 7 6 7 7 7 7 6 6 7 9 13 16 21 22 23 17 14 26 25 26 29 28 27 27 26 28 26 26 27 25 25 25 24 24 23 21 22 22 24 24 22
8 7 9 11 9 9 9 8 6 6 8 11 14 16 17 19 22 22 21 21 28 27 26 27 27 28 31 33 30 28 27 27 27 26 25 24 22 21 22 21 21 22 23 22
11 12 12 10 9 8 7 7 7 9 11 13 15 17 17 18 19 16 12 24 24 26 29 29 31 33 34 34 30 29 28 27 27 25 24 24 24 24 22 22 23 23 22 24
9 11 9 8 7 5 4 8 7 8 11 15 18 19 20 18 20 22 25 27 29 31 31 32 33 34 35 32 28 27 27 26 26 26 26 28 26 25 24 23 23 23 23 24
9 11 11 9 6 6 8 8 8 10 12 14 16 18 19 19 21 26 27 29 30 29 29 32 34 34 31 28 28 28 28 27 28 28 27 25 23 23 22 22 22 24 24 23
9 8 9 10 7 3 3 6 7 9 12 14 16 18 21 23 24 25 26 28 29 29 30 29 29 31 30 29 29 29 29 29 29 28 28 26 25 24 24 24 25 26 26 25
6 6 6 3 4 3 3 6 8 10 13 16 17 20 22 24 24 26 27 27 28 29 29 30 30 31 31 30 30 30 30 30 31 31 29 26 25 24 24 24 24 25 24 25
Wind_Direction
10 346 276 266 265 239 217 235 231 260 267 279 301 306 304 112 118 104 134 90 57 42 14 3 30 19 13 2 358 352 347 347 340 339 338 334 331 328 325 323 320 320 317 315
268 251 262 269 263 256 249 258 258 265 273 272 287 37 27 17 136 147 129 86 55 27 22 30 26 12 4 358 349 343 341 340 333 339 335 327 321 319 316 315 317 316 312 315
254 72 353 278 256 233 235 247 236 248 254 281 298 233 214 212 194 176 119 83 55 50 42 21 7 3 1 348 342 338 339 333 341 339 332 327 324 322 319 319 320 312 317 310
275 325 215 245 219 216 267 255 240 262 277 289 81 5 15 40 69 36 74 63 55 40 23 14 359 355 352 346 338 337 332 341 340 331 327 326 324 323 322 322 316 321 314 317
212 220 303 291 310 222 222 294 289 297 294 341 71 28 335 100 82 82 74 73 58 34 12 351 2 357 345 336 334 331 340 337 330 326 323 323 323 321 321 316 319 315 315 312
68 206 236 256 104 59 22 282 35 47 18 100 80 347 149 80 78 77 70 61 51 22 358 358 354 342 337 329 328 331 333 327 324 324 321 320 318 319 317 316 315 311 312 309
226 243 284 265 123 121 107 251 306 334 318 180 175 168 126 82 71 72 71 58 36 9 6 346 333 334 328 328 323 327 326 325 325 324 321 320 318 318 319 317 314 313 309 307
201 217 265 346 68 154 259 304 216 219 221 192 96 105 91 78 74 69 58 47 33 351 336 331 334 339 333 325 324 328 328 328 324 322 322 319 317 317 317 318 310 310 310 320
180 216 232 102 324 6 358 355 8 17 19 100 102 80 74 68 63 60 64 32 1 342 334 333 334 336 327 319 324 326 323 319 317 318 320 319 320 319 315 316 316 309 321 322
332 280 322 328 328 44 31 19 25 59 67 61 98 112 128 134 138 205 276 355 341 334 328 321 327 324 315 318 323 322 317 316 318 319 319 318 316 314 315 311 312 320 318 315
290 298 298 289 70 61 83 120 103 58 25 6 114 119 145 170 178 162 319 334 330 324 315 315 317 313 314 318 320 318 318 318 317 317 316 313 311 309 307 307 314 312 312 308
258 303 305 297 312 77 32 4 148 132 100 50 36 132 130 148 140 3 341 314 307 306 307 310 313 314 314 317 318 317 315 313 312 313 310 308 308 309 308 307 309 308 307 306
282 330 321 311 316 98 95 67 114 90 96 128 87 104 105 19 353 307 310 302 299 307 307 305 306 306 309 312 313 311 306 307 307 306 302 303 305 308 309 311 310 311 313 314
293 302 304 358 41 69 91 85 97 101 105 122 169 202 228 281 307 293 292 300 305 303 298 299 302 302 308 310 307 304 301 299 299 298 298 300 302 302 304 306 308 313 318 317
357 64 106 116 111 97 120 139 130 143 155 184 203 224 254 278 283 289 293 295 298 295 295 301 304 300 305 304 301 300 298 298 298 299 299 301 305 303 302 304 308 308 312 317
14 6 354 327 299 171 148 164 177 188 196 172 183 235 263 282 286 288 292 295 293 293 301 303 300 299 303 303 302 303 301 299 302 302 302 304 304 303 304 304 305 309 309 310
236 263 214 232 214 195 201 190 205 166 162 187 237 263 281 288 286 286 289 299 300 297 299 299 296 302 305 307 307 303 297 296 300 304 300 301 302 299 298 299 300 302 302 306
215 269 204 202 180 181 187 169 154 171 199 235 256 285 281 281 278 295 300 304 303 301 299 298 302 304 305 304 304 300 299 297 298 298 301 300 297 297 300 300 297 295 300 303
12 354 37 129 156 161 156 173 184 209 228 254 270 276 284 288 291 296 303 304 299 297 297 303 303 302 303 303 303 301 297 297 298 297 296 298 298 295 298 300 300 301 301 301
40 206 192 171 175 170 155 176 189 214 241 258 273 285 290 294 298 298 300 291 288 287 296 301 304 302 301 302 304 302 300 297 295 296 296 295 299 298 295 298 301 301 304 304
215 204 185 174 174 180 185 192 204 235 259 276 282 282 284 292 293 293 290 287 293 299 302 302 301 301 303 303 302 299 297 295 294 293 293 292 293 294 295 302 305 306 301 302
208 200 200 200 198 200 210 214 222 246 269 277 280 283 287 288 291 294 290 281 294 301 302 302 300 301 303 305 303 299 295 294 293 292 292 292 293 296 298 296 298 300 302 301
210 205 205 201 205 218 211 207 234 257 266 277 284 288 286 285 289 293 295 301 299 299 302 304 302 304 305 304 300 298 295 294 292 293 295 294 292 290 289 291 293 294 296 295
213 203 196 199 190 187 229 256 248 265 283 289 290 292 287 285 289 290 290 293 299 303 303 301 303 304 305 305 303 299 297 295 294 293 290 289 287 285 283 283 284 289 294 296
201 172 173 174 182 231 249 263 280 294 298 297 295 295 297 296 290 297 299 299 300 303 301 302 304 306 306 302 299 296 294 293 292 289 287 285 283 280 280 279 282 287 291 295
168 192 204 208 213 217 268 292 292 301 305 299 300 301 303 301 298 300 299 299 302 303 302 302 302 302 302 300 298 294 292 292 291 288 287 287 284 280 282 280 282 285 289 291
165 160 152 185 232 240 271 294 301 306 306 302 296 303 303 302 303 304 302 303 303 302 301 300 300 300 300 299 297 294 293 291 290 289 288 286 282 279 278 279 279 286 286 293
Height
767 765 766 770 771 769 775 767 780 759 761 746 744 743 740 742 747 749 751 754 758 760 761 762 762 763 764 763 761 758 755 751 748 744 741 738 735 731 727 722 717 713 706 701
773 766 766 772 765 764 764 760 760 759 756 737 738 741 741 743 744 748 751 755 758 760 762 764 766 766 764 764 762 760 757 753 750 745 741 737 733 729 724 720 714 709 704 697
783 768 772 779 755 757 755 752 754 761 746 740 739 741 740 739 741 746 752 755 759 763 765 766 766 765 764 764 762 760 757 754 751 747 743 739 734 728 722 716 710 705 700 694
788 779 796 751 735 738 745 739 742 742 740 738 739 740 740 740 743 750 755 759 763 766 767 767 767 767 766 765 764 761 758 754 750 747 742 736 730 724 719 713 707 701 695 690
792 785 765 748 733 739 742 747 737 740 737 734 743 744 745 743 748 756 760 764 766 768 769 770 769 769 768 767 766 763 758 755 751 747 740 734 728 723 717 710 704 698 692 686
809 794 786 740 740 739 740 763 740 739 738 741 747 758 756 752 753 758 762 766 768 769 771 771 769 768 766 764 763 759 755 752 747 742 736 729 723 719 714 709 702 695 688 682
782 785 767 740 743 740 762 759 738 739 738 739 748 750 752 753 758 761 764 767 768 770 771 770 768 766 764 762 760 757 752 746 741 737 733 726 720 716 711 705 699 692 684 677
775 776 781 733 743 754 745 736 734 736 736 740 742 746 754 760 763 764 767 768 768 769 768 767 766 763 760 758 756 751 746 742 738 734 729 724 719 712 709 702 695 687 681 674
763 764 740 732 739 740 740 739 739 740 738 741 744 749 755 760 763 764 766 767 767 767 766 764 762 760 757 756 752 746 744 740 736 730 725 721 716 710 705 699 693 685 680 674
755 738 738 738 736 743 743 746 746 746 747 747 749 750 755 760 762 763 765 765 766 765 764 762 760 758 757 752 748 744 741 736 730 725 721 717 713 708 703 697 690 685 679 674
750 744 741 740 742 744 744 747 747 748 749 750 751 755 757 759 760 763 765 764 764 763 762 758 758 757 752 748 745 741 736 731 727 723 718 713 709 706 700 695 691 685 679 674
747 742 744 742 740 741 742 744 744 747 754 757 757 757 757 758 760 762 761 762 762 760 759 757 754 751 747 744 741 737 733 729 725 720 715 711 705 698 695 691 686 682 677 672
740 738 738 737 737 740 742 742 743 746 749 754 758 757 757 758 759 761 761 760 759 756 756 754 751 747 744 741 737 734 730 726 721 717 713 708 702 697 690 682 680 677 671 666
736 735 736 735 742 743 743 746 746 749 752 755 756 757 757 758 759 759 759 759 758 755 753 751 747 743 739 737 734 731 727 723 718 712 708 704 699 694 689 682 675 667 666 663
735 739 742 744 746 747 748 748 750 752 753 755 755 757 757 758 759 759 758 757 755 752 749 746 742 738 736 733 730 725 721 716 712 707 703 699 694 690 684 679 673 668 662 658
744 744 744 745 744 746 747 748 749 751 751 751 754 754 755 756 757 757 755 753 750 746 744 741 737 733 730 727 723 719 715 711 707 702 698 694 690 685 681 675 670 665 661 656
744 744 743 743 743 745 745 747 747 747 750 752 753 754 753 753 753 753 751 748 746 742 739 736 731 728 725 722 718 714 709 704 702 697 693 689 685 681 676 672 667 661 657 653
736 736 734 734 738 740 742 743 746 749 751 752 752 752 751 751 750 749 746 743 739 736 734 730 727 723 720 716 713 708 704 699 696 692 688 684 680 675 670 666 662 657 652 648
732 733 734 734 736 738 741 744 746 749 751 751 751 750 749 747 745 743 741 738 735 732 726 725 721 717 713 710 708 702 698 694 691 686 683 678 674 670 665 661 657 652 648 643
736 736 736 736 737 738 740 742 744 746 747 748 748 746 744 742 740 739 737 733 731 728 723 719 715 711 707 704 701 696 692 688 684 680 676 672 668 664 660 656 652 647 643 640
736 736 736 737 738 739 740 741 743 744 744 744 744 743 741 738 736 735 732 729 723 721 718 713 709 705 701 698 694 690 686 681 677 673 669 665 661 658 654 651 647 644 639 636
733 734 734 735 737 738 739 740 740 741 741 740 740 739 737 735 732 729 728 725 718 715 712 707 703 699 695 691 686 682 678 674 670 666 662 659 655 652 649 646 643 639 636 632
729 730 731 733 735 736 737 737 737 737 736 736 736 735 734 731 729 726 720 716 714 710 706 701 696 692 688 683 678 674 670 666 662 659 656 652 649 646 643 640 637 634 631 628
725 727 729 731 732 734 735 734 734 733 733 732 732 731 729 725 722 720 716 712 708 704 699 694 689 685 680 675 671 667 663 659 656 653 649 645 642 639 636 634 631 628 626 623
721 723 725 727 729 731 731 732 731 730 728 728 727 726 724 722 720 714 710 705 701 697 691 686 682 677 673 669 664 660 656 653 649 645 641 637 634 631 629 627 625 623 620 618
719 721 723 724 726 727 728 729 729 727 726 724 723 721 718 716 713 709 704 700 695 690 685 680 675 670 666 661 657 653 648 644 641 637 633 630 627 624 623 620 618 616 615 612
718 719 721 724 725 725 726 727 726 724 724 723 719 716 714 711 707 703 698 693 688 683 678 673 668 663 659 654 649 644 640 636 632 628 625 622 619 616 615 613 612 610 609 607